Wind_Speed
38 38 39 39 39 39 40 40 40 40 40 41 41 41 41 40 39 39 39 38 39 42 44 44 42 42 43 44 46 46 44 43 45 47 47 47 47 47 50 52 56 58
39 40 40 40 40 40 39 39 39 39 39 40 41 40 39 38 38 38 39 41 43 45 44 42 41 42 43 44 45 44 42 43 47 48 48 47 47 48 51 54 56 58
41 41 41 41 40 40 40 39 38 38 39 40 41 40 39 38 38 39 42 44 46 45 42 42 41 42 43 44 44 42 43 47 49 49 48 47 46 48 52 54 55 57
42 42 42 41 41 41 41 40 39 40 41 42 42 42 42 41 41 43 44 45 43 41 41 42 42 42 43 44 43 45 48 50 50 49 48 46 47 49 52 53 55 55
43 43 43 42 42 42 42 41 42 44 45 45 46 46 44 42 41 42 41 41 41 41 42 44 44 44 44 45 47 50 50 50 50 49 47 47 49 51 53 54 54 52
44 44 44 44 44 44 44 45 46 46 47 48 48 47 44 40 39 39 40 41 43 44 43 44 46 47 47 49 52 53 51 50 50 50 49 50 52 53 54 54 53 52
45 45 45 46 46 47 48 49 49 48 48 49 48 46 44 41 40 40 41 44 46 45 45 47 50 51 52 54 56 55 52 51 52 51 52 54 55 55 55 54 54 57
46 47 48 49 50 50 51 51 50 49 49 49 47 46 46 44 42 43 45 47 48 48 49 51 53 54 55 57 57 56 54 53 53 53 55 57 56 54 55 56 59 63
48 49 50 51 51 52 53 51 50 49 48 48 47 47 47 45 45 47 48 48 48 49 52 54 55 56 58 58 56 54 54 53 54 56 58 57 54 53 57 61 63 66
51 52 53 52 52 53 52 50 50 49 47 47 47 48 48 47 48 48 47 48 49 52 54 55 57 59 58 55 53 53 54 56 57 57 56 55 55 58 62 64 66 68
53 54 54 54 55 55 52 49 50 50 50 50 49 48 48 48 48 47 46 49 51 51 52 54 57 58 54 52 53 54 55 56 56 54 53 56 60 62 64 66 68 70
54 54 54 55 56 55 52 50 51 51 51 51 49 48 49 47 44 43 46 50 49 48 52 55 54 52 52 53 53 52 53 54 53 54 56 60 62 63 66 68 71 74
55 55 55 56 55 53 52 53 54 53 52 50 48 48 49 47 43 43 48 50 48 49 54 55 51 51 53 52 48 50 54 57 58 59 61 62 63 67 70 73 75 78
55 54 55 54 52 52 54 55 56 55 54 53 50 49 50 49 45 45 49 51 50 51 54 52 49 51 52 49 48 54 59 60 62 62 62 64 69 73 76 77 79 81
55 53 53 53 53 55 55 55 55 55 54 51 49 47 47 46 45 48 53 53 52 52 52 51 52 53 53 52 55 59 60 61 63 64 66 70 74 77 79 81 82 83
54 53 52 51 52 52 52 53 53 51 50 50 49 48 46 45 48 52 55 56 56 55 54 55 57 57 56 58 61 62 62 63 65 67 71 74 77 79 81 83 84 86
55 54 52 50 49 47 47 50 50 49 51 54 53 51 48 50 53 56 58 60 61 59 58 59 60 61 61 62 63 65 67 69 71 74 75 77 79 81 83 85 86 87
55 55 54 51 49 47 48 51 51 51 55 57 57 54 53 53 55 57 58 60 59 59 60 61 62 64 65 66 67 69 71 74 76 78 80 81 84 85 86 87 87 87
55 55 55 54 52 51 53 53 53 54 56 58 59 59 60 60 59 57 56 56 57 59 62 64 65 67 69 71 72 74 76 79 81 83 85 87 88 89 89 88 86 85
56 57 58 57 55 55 57 56 55 55 56 57 57 57 61 65 65 63 63 62 63 63 64 65 67 69 71 74 77 79 81 83 86 87 89 90 90 90 88 86 84 82
58 59 61 61 60 60 61 60 59 58 58 58 58 59 63 67 67 68 70 71 71 70 70 70 72 73 76 79 82 84 86 87 88 88 88 88 88 86 84 82 80 78
62 62 63 64 65 65 64 64 64 64 62 61 60 62 65 68 70 72 74 76 77 77 77 77 78 80 82 84 86 87 87 86 85 83 82 82 81 80 78 77 77 78
65 65 66 68 70 70 69 68 68 67 66 65 65 65 67 69 71 73 76 78 80 80 81 81 82 83 85 86 87 88 86 83 79 77 77 76 76 76 76 77 79 81
68 68 70 71 72 72 71 70 70 69 69 68 67 67 68 68 70 72 75 77 79 80 81 81 82 84 85 86 86 84 81 78 75 74 74 74 74 75 77 79 82 85
70 70 70 70 71 72 72 71 71 69 68 66 65 65 66 67 68 70 72 74 76 77 78 79 82 83 84 84 82 78 75 74 74 74 75 75 76 77 79 82 85 89
71 70 70 71 71 72 72 70 68 66 64 64 64 64 65 65 66 67 68 70 72 73 76 78 78 77 76 74 71 68 69 72 75 76 75 75 77 80 83 87 89 91
Wind_Direction
318 319 319 319 319 319 319 320 320 321 320 320 319 316 313 312 311 309 310 313 315 317 321 324 325 324 322 322 323 323 321 322 324 324 324 325 324 324 325 326 327 328
318 319 318 317 318 319 319 318 318 318 318 319 320 318 315 313 312 310 311 313 314 316 320 322 323 322 321 321 322 320 318 319 321 321 320 321 321 322 323 323 324 325
318 317 316 316 317 318 317 316 315 314 313 315 317 318 316 313 311 310 310 312 314 316 318 320 321 320 319 320 321 318 317 318 318 318 318 317 318 320 321 321 321 323
315 314 314 314 315 315 314 313 310 309 310 312 313 314 313 310 308 309 311 314 316 316 315 316 317 316 316 318 320 319 317 316 315 315 315 314 315 317 317 318 319 322
313 312 313 313 312 312 311 309 307 309 311 313 312 312 311 309 309 311 313 314 314 313 311 310 310 311 312 314 317 319 317 314 313 313 312 312 313 314 315 317 320 322
311 311 311 310 310 309 308 307 309 312 315 315 315 314 312 311 310 310 312 312 310 308 306 304 305 306 308 312 315 317 316 314 313 311 311 311 311 312 315 319 320 318
309 310 309 308 308 308 309 310 312 314 317 318 316 315 312 310 309 308 309 308 307 305 302 302 304 305 307 311 314 314 314 313 312 310 310 310 311 315 318 318 315 313
308 308 308 308 309 311 312 313 314 315 317 317 315 313 310 306 304 305 306 305 303 302 303 305 306 307 309 311 312 311 311 310 310 310 310 311 314 317 315 311 309 310
307 306 307 309 312 313 312 313 315 316 316 314 310 309 307 303 301 302 304 303 302 304 307 309 308 308 309 310 309 309 309 309 310 311 312 314 314 311 307 306 307 308
305 305 307 309 311 310 310 312 313 312 312 309 306 306 304 300 299 301 303 302 304 309 310 309 307 308 310 311 310 310 311 312 314 314 313 312 309 306 305 305 306 306
303 304 307 308 309 308 308 310 311 309 308 307 306 306 305 301 298 298 302 305 308 311 311 308 308 309 312 314 314 314 315 315 315 313 309 306 305 304 303 304 304 306
302 304 306 306 307 307 306 307 307 306 306 306 306 305 305 304 298 295 303 310 310 309 310 310 309 310 312 316 317 315 313 311 309 306 303 302 302 301 302 303 305 306
302 304 305 306 306 305 304 304 304 305 305 304 303 301 300 302 298 295 302 308 305 304 308 308 308 308 311 315 313 308 307 305 303 302 301 300 300 301 303 305 307 308
302 303 305 305 302 301 302 302 302 304 304 301 298 296 296 297 296 294 297 300 300 302 305 305 304 306 311 312 307 304 304 303 302 300 299 299 300 302 304 306 307 309
302 303 304 303 301 301 303 303 302 301 300 296 294 294 295 294 288 285 289 293 298 301 301 299 299 303 307 307 305 305 305 303 301 299 298 298 300 301 303 306 307 308
301 301 302 301 301 303 305 304 300 297 294 291 291 293 293 288 280 280 285 290 294 297 297 296 296 298 301 303 303 303 302 300 298 297 297 297 299 301 303 305 307 308
300 300 300 300 300 302 300 294 289 286 287 288 290 292 291 286 282 283 285 288 291 294 294 293 294 295 296 298 298 298 297 296 296 297 298 299 300 302 304 305 307 307
299 299 298 298 297 296 293 287 284 284 286 288 290 291 290 289 288 287 288 289 290 291 291 291 292 294 294 294 294 293 294 295 296 298 299 300 301 303 304 305 307 307
297 297 296 295 295 294 291 290 290 289 287 288 289 288 286 287 288 290 291 291 289 288 289 290 292 293 293 292 292 292 293 295 296 297 299 300 301 303 304 305 306 306
295 294 294 294 294 294 294 293 293 291 289 289 287 284 283 283 283 285 287 288 288 288 288 289 291 291 291 292 292 293 294 295 296 297 298 299 301 302 303 304 305 306
294 294 294 295 295 295 295 295 294 292 291 290 286 284 284 285 283 282 283 283 284 284 285 288 290 292 293 294 294 295 296 296 297 297 298 299 300 302 303 304 305 305
294 295 296 296 296 296 296 296 295 294 292 290 287 285 285 286 285 283 282 282 283 284 285 288 291 293 295 296 296 297 297 297 297 298 299 301 302 303 303 304 304 303
295 296 297 297 297 296 296 296 296 295 293 290 288 286 285 285 285 284 284 284 285 286 288 291 293 294 295 295 295 296 296 297 298 300 301 303 303 303 303 302 302 301
296 297 297 297 296 296 296 295 295 294 293 292 290 289 288 287 286 285 285 285 285 287 289 292 293 293 293 293 293 294 296 297 300 302 304 303 303 302 301 301 301 301
295 296 296 296 295 295 295 295 294 294 293 292 291 291 290 288 287 286 285 285 286 288 289 291 291 291 291 291 292 294 296 298 301 303 304 303 303 302 301 301 301 301
294 294 295 295 295 295 295 294 294 293 292 292 292 292 290 289 288 288 287 287 287 287 289 291 294 296 295 294 295 297 298 301 304 305 304 304 303 303 302 302 302 302
Height
10946 10945 10943 10941 10939 10938 10935 10933 10931 10929 10927 10925 10922 10920 10918 10916 10913 10911 10909 10908 10906 10905 10904 10902 10900 10898 10896 10894 10891 10889 10887 10884 10882 10880 10877 10875 10873 10871 10868 10866 10864 10862
10943 10941 10939 10937 10936 10934 10933 10930 10928 10925 10923 10920 10918 10916 10914 10912 10910 10908 10906 10904 10902 10901 10899 10897 10895 10893 10891 10889 10886 10884 10882 10880 10877 10875 10872 10870 10867 10865 10863 10861 10859 10857
10939 10937 10935 10934 10932 10930 10928 10927 10924 10922 10919 10917 10914 10911 10909 10907 10906 10904 10902 10900 10898 10896 10894 10892 10890 10888 10886 10884 10881 10879 10877 10874 10872 10870 10867 10864 10862 10859 10857 10855 10853 10851
10936 10933 10931 10929 10927 10925 10924 10922 10920 10917 10915 10913 10911 10908 10906 10903 10901 10900 10898 10896 10893 10891 10889 10887 10885 10883 10881 10879 10876 10874 10871 10869 10866 10864 10861 10858 10856 10854 10852 10850 10847 10845
10931 10929 10927 10925 10922 10920 10918 10917 10915 10913 10911 10909 10906 10904 10902 10899 10898 10896 10894 10891 10888 10886 10883 10881 10879 10878 10876 10874 10871 10868 10866 10863 10860 10858 10855 10853 10850 10848 10846 10844 10841 10838
10927 10925 10922 10919 10917 10915 10913 10911 10910 10909 10907 10905 10902 10899 10897 10895 10893 10891 10889 10886 10883 10881 10878 10876 10874 10872 10871 10868 10866 10863 10860 10857 10855 10852 10850 10848 10845 10843 10840 10836 10834 10832
10922 10920 10917 10914 10912 10911 10909 10907 10906 10904 10902 10899 10896 10894 10891 10889 10887 10885 10883 10881 10878 10875 10873 10871 10869 10866 10865 10863 10860 10857 10854 10852 10849 10847 10844 10842 10840 10836 10833 10830 10828 10827
10918 10915 10911 10909 10907 10906 10904 10902 10901 10898 10896 10893 10891 10888 10886 10884 10881 10879 10877 10874 10872 10870 10867 10865 10863 10861 10859 10857 10854 10851 10848 10846 10844 10841 10838 10835 10832 10829 10826 10824 10822 10820
10912 10909 10906 10904 10903 10901 10899 10897 10895 10892 10890 10887 10885 10883 10881 10878 10875 10873 10870 10868 10866 10864 10861 10858 10856 10854 10853 10850 10847 10844 10842 10840 10837 10834 10830 10827 10824 10822 10820 10817 10815 10813
10906 10903 10901 10901 10899 10897 10894 10892 10889 10886 10885 10882 10880 10878 10876 10872 10869 10867 10864 10862 10860 10858 10854 10851 10848 10846 10845 10843 10840 10837 10835 10832 10829 10825 10822 10820 10818 10815 10813 10810 10808 10805
10901 10899 10898 10896 10893 10890 10888 10887 10883 10879 10878 10876 10874 10872 10870 10867 10864 10862 10859 10856 10854 10852 10848 10844 10841 10838 10836 10835 10831 10829 10826 10823 10821 10818 10816 10814 10811 10809 10806 10803 10800 10797
10899 10898 10896 10893 10888 10884 10882 10881 10877 10874 10871 10870 10869 10867 10864 10862 10859 10857 10855 10852 10849 10846 10842 10839 10836 10832 10829 10827 10824 10821 10819 10817 10814 10812 10810 10808 10805 10802 10799 10796 10792 10788
10896 10895 10893 10889 10884 10879 10877 10874 10870 10868 10867 10865 10864 10861 10858 10856 10853 10851 10849 10846 10843 10841 10838 10834 10830 10826 10823 10821 10819 10816 10814 10811 10808 10806 10803 10801 10798 10795 10791 10788 10784 10780
10891 10890 10888 10885 10879 10875 10874 10870 10865 10862 10861 10860 10858 10856 10852 10850 10848 10845 10842 10840 10838 10835 10832 10829 10825 10822 10819 10817 10814 10811 10808 10805 10802 10799 10797 10794 10791 10787 10783 10780 10776 10772
10885 10884 10882 10880 10875 10870 10868 10865 10860 10858 10855 10853 10852 10850 10847 10844 10841 10837 10835 10834 10832 10830 10827 10824 10820 10818 10815 10812 10809 10806 10802 10799 10796 10793 10790 10787 10783 10779 10775 10771 10767 10763
10877 10876 10876 10875 10872 10868 10864 10859 10855 10853 10850 10847 10846 10844 10841 10838 10834 10831 10830 10829 10827 10824 10821 10817 10814 10812 10810 10806 10802 10799 10796 10792 10789 10786 10783 10779 10775 10771 10767 10763 10759 10754
10870 10869 10869 10869 10867 10865 10860 10853 10850 10848 10844 10842 10841 10838 10835 10832 10829 10827 10825 10823 10821 10817 10813 10809 10807 10805 10803 10799 10795 10792 10788 10784 10781 10778 10774 10771 10767 10763 10759 10754 10750 10745
10864 10862 10861 10861 10860 10858 10852 10846 10844 10843 10840 10837 10835 10833 10831 10828 10825 10822 10820 10817 10814 10809 10805 10801 10800 10798 10795 10792 10788 10785 10781 10777 10773 10770 10766 10762 10758 10754 10750 10745 10741 10736
10859 10856 10853 10852 10852 10848 10843 10840 10840 10838 10835 10833 10831 10828 10825 10823 10821 10817 10815 10812 10807 10803 10799 10796 10793 10791 10788 10785 10781 10778 10774 10770 10766 10762 10758 10753 10749 10745 10741 10736 10732 10728
10852 10849 10845 10844 10844 10841 10835 10834 10834 10832 10830 10829 10826 10823 10820 10817 10815 10813 10809 10806 10802 10797 10793 10790 10787 10784 10781 10777 10773 10770 10766 10762 10758 10754 10750 10745 10741 10737 10733 10729 10725 10721
10844 10842 10838 10836 10836 10833 10829 10828 10827 10826 10824 10822 10819 10818 10814 10811 10808 10806 10803 10800 10796 10791 10787 10782 10779 10776 10772 10768 10764 10760 10757 10754 10750 10747 10743 10737 10733 10729 10725 10721 10717 10713
10836 10834 10831 10828 10826 10824 10822 10821 10819 10817 10816 10814 10812 10811 10808 10805 10802 10798 10795 10791 10788 10783 10778 10774 10770 10766 10762 10757 10754 10751 10748 10745 10743 10739 10735 10729 10725 10720 10716 10713 10708 10704
10828 10826 10823 10820 10817 10815 10815 10814 10811 10809 10807 10806 10804 10803 10801 10798 10794 10790 10787 10783 10778 10774 10769 10764 10760 10756 10752 10748 10745 10742 10739 10737 10734 10730 10725 10720 10716 10711 10707 10703 10699 10694
10819 10818 10816 10813 10809 10806 10806 10806 10803 10801 10799 10797 10795 10794 10792 10790 10786 10782 10778 10774 10769 10765 10760 10755 10750 10746 10742 10739 10737 10735 10732 10728 10726 10721 10716 10712 10707 10703 10698 10694 10689 10684
10812 10810 10809 10806 10802 10799 10798 10797 10795 10793 10791 10789 10787 10785 10783 10781 10777 10774 10769 10765 10760 10756 10751 10747 10741 10737 10733 10730 10729 10728 10724 10719 10717 10713 10707 10702 10698 10694 10689 10685 10680 10675
10804 10803 10801 10799 10796 10793 10790 10789 10787 10784 10783 10781 10779 10777 10775 10772 10768 10765 10760 10756 10752 10748 10743 10738 10733 10727 10723 10720 10719 10718 10715 10710 10707 10703 10698 10693 10688 10684 10679 10674 10669 10664